| time (UTC) | temp C | wind direction | speed KPH | gust KPH | rain 1hr cm | rain 24hr cm | rain mn cm | humidity % | barometer mb |
| 20260905223018 | 20 | 3 | 0.0 | 4.8 | 0.00 | 0.00 | 0.00 | 58 | 1022.3 |
| 20260905222029 | 19 | 277 | 1.6 | 6.4 | 0.00 | 0.00 | 0.00 | 58 | 1022.3 |
| 20260905221023 | 19 | 306 | 1.6 | 4.8 | 0.00 | 0.00 | 0.00 | 58 | 1022.3 |
| 20260905220030 | 18 | 309 | 0.0 | 4.8 | 0.00 | 0.00 | 0.00 | 59 | 1022.2 |
| 20260905215022 | 18 | 331 | 0.0 | 3.2 | 0.00 | 0.00 | 0.00 | 60 | 1022.0 |
| 20260905214030 | 17 | 95 | 0.0 | 3.2 | 0.00 | 0.00 | 0.00 | 63 | 1022.0 |
| 20260905213022 | 16 | 117 | 0.0 | 3.2 | 0.00 | 0.00 | 0.00 | 67 | 1021.9 |
| 20260905212029 | 17 | 100 | 1.6 | 3.2 | 0.00 | 0.00 | 0.00 | 68 | 1021.8 |
| 20260905211021 | 17 | 126 | 1.6 | 3.2 | 0.00 | 0.00 | 0.00 | 67 | 1021.8 |
| 20260905210030 | 17 | 132 | 1.6 | 3.2 | 0.00 | 0.00 | 0.00 | 66 | 1021.8 |
| 20260905205023 | 17 | 119 | 1.6 | 3.2 | 0.00 | 0.00 | 0.00 | 63 | 1021.9 |
| 20260905204030 | 18 | 0.0 | 1.6 | 0.00 | 0.00 | 0.00 | 61 | 1021.8 | |
| 20260905203021 | 18 | 0.0 | 1.6 | 0.00 | 0.00 | 0.00 | 61 | 1021.9 | |
| 20260905202030 | 18 | 0.0 | 1.6 | 0.00 | 0.00 | 0.00 | 62 | 1021.9 | |
| 20260905201021 | 18 | 54 | 0.0 | 1.6 | 0.00 | 0.00 | 0.00 | 64 | 1021.9 |
| 20260905200030 | 18 | 56 | 0.0 | 3.2 | 0.00 | 0.00 | 0.00 | 64 | 1021.7 |
| 20260905195022 | 18 | 90 | 0.0 | 3.2 | 0.00 | 0.00 | 0.00 | 63 | 1021.7 |
| 20260905194029 | 18 | 0.0 | 0.0 | 0.00 | 0.00 | 0.00 | 61 | 1021.6 | |
| 20260905193022 | 19 | 0.0 | 1.6 | 0.00 | 0.00 | 0.00 | 60 | 1021.5 | |
| 20260905192029 | 19 | 142 | 0.0 | 1.6 | 0.00 | 0.00 | 0.00 | 60 | 1021.5 |
| 20260905191022 | 19 | 0.0 | 1.6 | 0.00 | 0.00 | 0.00 | 60 | 1021.5 | |
| 20260905190030 | 19 | 78 | 0.0 | 3.2 | 0.00 | 0.00 | 0.00 | 61 | 1021.4 |
| 20260905185022 | 19 | 0.0 | 4.8 | 0.00 | 0.00 | 0.00 | 62 | 1021.1 | |
| 20260905184029 | 20 | 127 | 0.0 | 3.2 | 0.00 | 0.00 | 0.00 | 61 | 1020.9 |
| 20260905183022 | 20 | 99 | 0.0 | 1.6 | 0.00 | 0.00 | 0.00 | 61 | 1020.9 |
| 20260905182029 | 20 | 0.0 | 1.6 | 0.00 | 0.00 | 0.00 | 59 | 1020.6 | |
| 20260905181023 | 21 | 150 | 0.0 | 3.2 | 0.00 | 0.00 | 0.00 | 58 | 1020.6 |
| 20260905180030 | 21 | 338 | 0.0 | 3.2 | 0.00 | 0.00 | 0.00 | 57 | 1020.5 |
| 20260905175022 | 21 | 251 | 0.0 | 3.2 | 0.00 | 0.00 | 0.00 | 56 | 1020.3 |
| 20260905174031 | 21 | 320 | 1.6 | 6.4 | 0.00 | 0.00 | 0.00 | 55 | 1020.2 |
| 20260905173021 | 22 | 294 | 3.2 | 9.7 | 0.00 | 0.00 | 0.00 | 54 | 1020.0 |
| 20260905172030 | 22 | 300 | 3.2 | 4.8 | 0.00 | 0.00 | 0.00 | 54 | 1020.0 |
| 20260905171022 | 22 | 306 | 3.2 | 9.7 | 0.00 | 0.00 | 0.00 | 54 | 1020.0 |
| 20260905170029 | 22 | 290 | 3.2 | 8.0 | 0.00 | 0.00 | 0.00 | 54 | 1019.8 |
| 20260905165025 | 22 | 263 | 1.6 | 8.0 | 0.00 | 0.00 | 0.00 | 53 | 1019.6 |
| 20260905164030 | 23 | 295 | 1.6 | 4.8 | 0.00 | 0.00 | 0.00 | 51 | 1019.5 |
| 20260905163022 | 23 | 308 | 3.2 | 8.0 | 0.00 | 0.00 | 0.00 | 50 | 1019.5 |
| 20260905162031 | 23 | 297 | 3.2 | 8.0 | 0.00 | 0.00 | 0.00 | 50 | 1019.4 |
| 20260905161022 | 23 | 299 | 3.2 | 11.3 | 0.00 | 0.00 | 0.00 | 49 | 1019.2 |
| 20260905160030 | 23 | 305 | 3.2 | 8.0 | 0.00 | 0.00 | 0.00 | 48 | 1019.1 |
| 20260905155022 | 23 | 303 | 3.2 | 11.3 | 0.00 | 0.00 | 0.00 | 48 | 1019.1 |
| 20260905154030 | 24 | 292 | 4.8 | 9.7 | 0.00 | 0.00 | 0.00 | 47 | 1019.0 |
| 20260905153023 | 24 | 301 | 3.2 | 12.9 | 0.00 | 0.00 | 0.00 | 46 | 1019.0 |
| 20260905152030 | 24 | 304 | 4.8 | 17.7 | 0.00 | 0.00 | 0.00 | 46 | 1018.9 |
| 20260905151022 | 25 | 296 | 3.2 | 6.4 | 0.00 | 0.00 | 0.00 | 45 | 1018.8 |
| 20260905150032 | 25 | 302 | 4.8 | 11.3 | 0.00 | 0.00 | 0.00 | 45 | 1018.9 |
| 20260905145022 | 25 | 299 | 4.8 | 11.3 | 0.00 | 0.00 | 0.00 | 45 | 1018.8 |
| 20260905144030 | 25 | 313 | 3.2 | 9.7 | 0.00 | 0.00 | 0.00 | 45 | 1018.8 |
| 20260905143022 | 25 | 299 | 4.8 | 9.7 | 0.00 | 0.00 | 0.00 | 45 | 1018.8 |
| 20260905142030 | 24 | 308 | 4.8 | 12.9 | 0.00 | 0.00 | 0.00 | 46 | 1018.9 |
| 20260905141026 | 24 | 303 | 3.2 | 9.7 | 0.00 | 0.00 | 0.00 | 47 | 1019.0 |
| 20260905140030 | 23 | 296 | 3.2 | 11.3 | 0.00 | 0.00 | 0.00 | 47 | 1019.3 |
| 20260905135022 | 23 | 302 | 3.2 | 11.3 | 0.00 | 0.00 | 0.00 | 47 | 1019.3 |
| 20260905134031 | 23 | 305 | 3.2 | 14.5 | 0.00 | 0.00 | 0.00 | 47 | 1019.2 |
| 20260905133022 | 23 | 300 | 4.8 | 11.3 | 0.00 | 0.00 | 0.00 | 48 | 1019.2 |
| 20260905132031 | 23 | 310 | 3.2 | 11.3 | 0.00 | 0.00 | 0.00 | 48 | 1019.2 |
| 20260905131023 | 24 | 290 | 4.8 | 11.3 | 0.00 | 0.00 | 0.00 | 47 | 1019.2 |
| 20260905130030 | 23 | 297 | 3.2 | 8.0 | 0.00 | 0.00 | 0.00 | 47 | 1019.4 |
| 20260905125023 | 23 | 306 | 4.8 | 9.7 | 0.00 | 0.00 | 0.00 | 47 | 1019.3 |
| 20260905124030 | 23 | 289 | 3.2 | 11.3 | 0.00 | 0.00 | 0.00 | 47 | 1019.4 |
| 20260905123021 | 23 | 304 | 4.8 | 12.9 | 0.00 | 0.00 | 0.00 | 48 | 1019.4 |
| 20260905122030 | 23 | 299 | 4.8 | 11.3 | 0.00 | 0.00 | 0.00 | 46 | 1019.3 |
| 20260905121023 | 23 | 302 | 4.8 | 12.9 | 0.00 | 0.00 | 0.00 | 45 | 1019.3 |
| 20260905120030 | 24 | 293 | 4.8 | 9.7 | 0.00 | 0.00 | 0.00 | 45 | 1019.5 |
| 20260905115022 | 23 | 300 | 4.8 | 11.3 | 0.00 | 0.00 | 0.00 | 46 | 1019.4 |
| 20260905114030 | 23 | 306 | 4.8 | 14.5 | 0.00 | 0.00 | 0.00 | 47 | 1019.3 |
| 20260905113023 | 24 | 306 | 4.8 | 12.9 | 0.00 | 0.00 | 0.00 | 47 | 1019.2 |
| 20260905112030 | 23 | 294 | 4.8 | 14.5 | 0.00 | 0.00 | 0.00 | 47 | 1019.1 |
| 20260905111023 | 23 | 299 | 4.8 | 11.3 | 0.00 | 0.00 | 0.00 | 47 | 1019.1 |
| 20260905110031 | 23 | 309 | 6.4 | 25.7 | 0.00 | 0.00 | 0.00 | 48 | 1019.2 |
| 20260905105022 | 22 | 304 | 4.8 | 16.1 | 0.00 | 0.00 | 0.00 | 52 | 1019.2 |
| 20260905104030 | 21 | 314 | 3.2 | 11.3 | 0.00 | 0.00 | 0.00 | 54 | 1019.3 |
| 20260905103022 | 21 | 347 | 1.6 | 9.7 | 0.00 | 0.00 | 0.00 | 56 | 1019.3 |
| 20260905102032 | 21 | 12 | 1.6 | 6.4 | 0.00 | 0.00 | 0.00 | 56 | 1019.5 |
| 20260905101023 | 20 | 55 | 1.6 | 6.4 | 0.00 | 0.00 | 0.00 | 58 | 1019.5 |
| 20260905100031 | 20 | 86 | 1.6 | 6.4 | 0.00 | 0.00 | 0.00 | 59 | 1019.5 |
| 20260905095022 | 20 | 53 | 3.2 | 8.0 | 0.00 | 0.00 | 0.00 | 59 | 1019.6 |
| 20260905094031 | 20 | 64 | 1.6 | 3.2 | 0.00 | 0.00 | 0.00 | 59 | 1019.6 |
| 20260905093022 | 20 | 77 | 1.6 | 4.8 | 0.00 | 0.00 | 0.00 | 59 | 1019.6 |
| 20260905092030 | 20 | 0.0 | 6.4 | 0.00 | 0.00 | 0.00 | 59 | 1019.8 | |
| 20260905091022 | 20 | 166 | 0.0 | 4.8 | 0.00 | 0.00 | 0.00 | 59 | 1019.7 |
| 20260905090030 | 20 | 321 | 0.0 | 3.2 | 0.00 | 0.00 | 0.00 | 59 | 1019.9 |
| 20260905085020 | 20 | 332 | 1.6 | 9.7 | 0.00 | 0.00 | 0.00 | 58 | 1019.7 |
| 20260905084029 | 19 | 322 | 3.2 | 8.0 | 0.00 | 0.00 | 0.00 | 58 | 1020.0 |
| 20260905083023 | 19 | 339 | 3.2 | 12.9 | 0.00 | 0.00 | 0.00 | 57 | 1019.9 |
| 20260905082027 | 20 | 19 | 0.0 | 4.8 | 0.00 | 0.00 | 0.00 | 56 | 1020.0 |
| 20260905081021 | 20 | 290 | 1.6 | 4.8 | 0.00 | 0.00 | 0.00 | 56 | 1020.2 |
| 20260905080031 | 19 | 309 | 1.6 | 6.4 | 0.00 | 0.00 | 0.00 | 56 | 1020.3 |
| 20260905075021 | 19 | 311 | 1.6 | 4.8 | 0.00 | 0.00 | 0.00 | 57 | 1020.2 |
| 20260905074029 | 18 | 284 | 1.6 | 6.4 | 0.00 | 0.00 | 0.00 | 57 | 1020.2 |
| 20260905073019 | 18 | 294 | 3.2 | 8.0 | 0.00 | 0.00 | 0.00 | 56 | 1020.4 |
| 20260905072030 | 19 | 337 | 1.6 | 8.0 | 0.00 | 0.00 | 0.00 | 54 | 1020.3 |
| 20260905071023 | 19 | 290 | 3.2 | 11.3 | 0.00 | 0.00 | 0.00 | 54 | 1020.2 |
| 20260905070031 | 18 | 4 | 1.6 | 4.8 | 0.00 | 0.00 | 0.00 | 55 | 1019.9 |
| 20260905065023 | 18 | 354 | 3.2 | 9.7 | 0.00 | 0.00 | 0.00 | 56 | 1019.9 |
| 20260905064031 | 19 | 342 | 4.8 | 14.5 | 0.00 | 0.00 | 0.00 | 55 | 1020.5 |
| 20260905063022 | 19 | 324 | 4.8 | 22.5 | 0.00 | 0.00 | 0.00 | 55 | 1020.0 |
| 20260905062031 | 19 | 356 | 3.2 | 9.7 | 0.00 | 0.00 | 0.00 | 55 | 1019.5 |
| 20260905061022 | 20 | 346 | 3.2 | 9.7 | 0.00 | 0.00 | 0.00 | 53 | 1019.4 |
| 20260905060030 | 20 | 318 | 3.2 | 6.4 | 0.00 | 0.00 | 0.00 | 53 | 1019.2 |
| 20260905055023 | 20 | 331 | 4.8 | 14.5 | 0.00 | 0.00 | 0.00 | 53 | 1018.6 |
| 20260905054031 | 19 | 260 | 3.2 | 6.4 | 0.00 | 0.00 | 0.00 | 55 | 1018.6 |
| 20260905053023 | 19 | 325 | 4.8 | 17.7 | 0.00 | 0.00 | 0.00 | 57 | 1017.7 |
| 20260905052031 | 19 | 3 | 4.8 | 12.9 | 0.00 | 0.00 | 0.00 | 58 | 1017.3 |
| 20260905051023 | 19 | 285 | 3.2 | 14.5 | 0.00 | 0.00 | 0.00 | 57 | 1016.8 |
| 20260905050031 | 19 | 311 | 3.2 | 9.7 | 0.00 | 0.00 | 0.00 | 59 | 1016.6 |
| 20260905045023 | 19 | 114 | 1.6 | 8.0 | 0.00 | 0.00 | 0.00 | 61 | 1016.6 |
| 20260905044031 | 19 | 21 | 1.6 | 6.4 | 0.00 | 0.00 | 0.00 | 62 | 1016.4 |
| 20260905043023 | 20 | 325 | 6.4 | 12.9 | 0.00 | 0.00 | 0.00 | 61 | 1015.3 |
| 20260905042031 | 20 | 326 | 6.4 | 20.9 | 0.00 | 0.00 | 0.00 | 61 | 1014.9 |
| 20260905041023 | 21 | 327 | 8.0 | 24.1 | 0.00 | 0.00 | 0.00 | 61 | 1015.1 |
| 20260905040031 | 23 | 325 | 9.7 | 24.1 | 0.00 | 0.00 | 0.00 | 59 | 1014.9 |
| 20260905035021 | 23 | 341 | 6.4 | 17.7 | 0.00 | 0.00 | 0.00 | 58 | 1014.8 |
| 20260905034030 | 24 | 220 | 1.6 | 6.4 | 0.00 | 0.00 | 0.00 | 56 | 1013.9 |
| 20260905033020 | 25 | 315 | 3.2 | 8.0 | 0.00 | 0.00 | 0.00 | 51 | 1014.2 |
| 20260905032029 | 25 | 319 | 3.2 | 8.0 | 0.00 | 0.00 | 0.00 | 50 | 1014.0 |
| 20260905031023 | 25 | 272 | 4.8 | 9.7 | 0.00 | 0.00 | 0.00 | 49 | 1014.0 |
| 20260905030029 | 25 | 270 | 3.2 | 8.0 | 0.00 | 0.00 | 0.00 | 49 | 1013.7 |
| 20260905025022 | 20 | 313 | 1.6 | 6.4 | 0.00 | 0.00 | 0.00 | 61 | 1013.7 |
| 20260905024031 | 20 | 104 | 3.2 | 6.4 | 0.00 | 0.00 | 0.00 | 60 | 1013.5 |
| 20260905023023 | 20 | 110 | 1.6 | 6.4 | 0.00 | 0.00 | 0.00 | 59 | 1013.3 |
| 20260905022030 | 20 | 123 | 1.6 | 6.4 | 0.00 | 0.00 | 0.00 | 60 | 1013.3 |
| 20260905021021 | 20 | 1 | 1.6 | 4.8 | 0.00 | 0.00 | 0.00 | 59 | 1013.4 |
| 20260905020029 | 20 | 200 | 1.6 | 6.4 | 0.00 | 0.00 | 0.00 | 59 | 1013.3 |
| 20260905015023 | 20 | 163 | 1.6 | 4.8 | 0.00 | 0.00 | 0.00 | 58 | 1013.2 |
| 20260905014029 | 20 | 160 | 3.2 | 9.7 | 0.00 | 0.00 | 0.00 | 57 | 1013.2 |
| 20260905013022 | 21 | 168 | 4.8 | 6.4 | 0.00 | 0.00 | 0.00 | 54 | 1013.1 |
| 20260905012015 | 21 | 136 | 1.6 | 4.8 | 0.00 | 0.00 | 0.00 | 54 | 1013.0 |
| 20260905011021 | 21 | 5 | 1.6 | 3.2 | 0.00 | 0.00 | 0.00 | 54 | 1013.0 |
| 20260905010030 | 21 | 189 | 3.2 | 8.0 | 0.00 | 0.00 | 0.00 | 55 | 1013.1 |
| 20260905005020 | 20 | 138 | 0.0 | 3.2 | 0.00 | 0.00 | 0.00 | 55 | 1013.0 |
| 20260905004029 | 20 | 180 | 1.6 | 4.8 | 0.00 | 0.00 | 0.00 | 58 | 1013.0 |
| 20260905003024 | 20 | 99 | 1.6 | 3.2 | 0.00 | 0.00 | 0.00 | 59 | 1013.0 |
| 20260905002015 | 20 | 159 | 0.0 | 3.2 | 0.00 | 0.00 | 0.00 | 59 | 1013.0 |
| 20260905001024 | 20 | 18 | 0.0 | 4.8 | 0.00 | 0.00 | 0.00 | 58 | 1012.9 |
| 20260905000031 | 20 | 168 | 1.6 | 4.8 | 0.00 | 0.00 | 0.00 | 59 | 1012.9 |
| 20260904235024 | 20 | 162 | 1.6 | 3.2 | 0.00 | 0.00 | 0.00 | 59 | 1013.0 |
| 20260904234031 | 20 | 101 | 0.0 | 1.6 | 0.00 | 0.00 | 0.00 | 58 | 1012.9 |
| 20260904233021 | 20 | 135 | 0.0 | 3.2 | 0.00 | 0.00 | 0.00 | 57 | 1012.9 |
| 20260904232029 | 20 | 204 | 1.6 | 4.8 | 0.00 | 0.00 | 0.00 | 58 | 1012.8 |
| 20260904231023 | 20 | 170 | 1.6 | 4.8 | 0.00 | 0.00 | 0.00 | 58 | 1012.6 |
| 20260904230031 | 20 | 133 | 1.6 | 3.2 | 0.00 | 0.00 | 0.00 | 58 | 1012.8 |
| 20260904225024 | 20 | 75 | 1.6 | 3.2 | 0.00 | 0.00 | 0.00 | 58 | 1012.7 |
| 20260904224032 | 20 | 226 | 0.0 | 3.2 | 0.00 | 0.00 | 0.00 | 58 | 1012.7 |